User: anonymous   Login
Location: Owatonna
(44.0840°N, 93.2260°W)
Time: 01:17:53
(UTC-05:00)
Language:

Tiangong 1 - Orbit

View from above orbital plane
View from above orbital plane
View from above satellite
View from above satellite

Ground track
Ground track

The orbit data is extracted from the following two-line orbital elements,

1 37820U 11053A   16237.77294656  .00014238  00000-0  14409-3 0  9994
2 37820  42.7620 196.4187 0013883 161.4920 270.7044 15.64996750281327
Epoch (UTC): 24 August 2016 18:33:02
Eccentricity: 0.0013883
inclination: 42.7620°
perigee height: 364 km
apogee height: 382 km
right ascension of ascending node: 196.4187°
argument of perigee: 161.4920°
revolutions per day: 15.64996750
mean anomaly at epoch: 270.7044°
orbit number at epoch: 28132

The dashed part of the orbit path shows where the satellite is in the earth's shadow,  

DLR